Location: Hilton Head Island
(32.2163°N, 80.7526°W)
Time: 00:55:42
(UTC-05:00)

Vanguard 1 - Pass Details

Date: 24 February 2026
Orbit: 653 x 3818 km, 34.2° (Epoch: 5 March)

Event Time Altitude Azimuth Distance (km) Brightness Sun altitude
Rises 18:53:53 0° 287° (WNW) 5,430 15.3 -8.6°
Reaches altitude 10° 18:56:49 10° 285° (WNW) 4,759 14.9 -9.2°
Maximum altitude 19:11:39 71° 205° (SSW) 3,316 12.8 -12.3°
Drops below altitude 10° 19:34:40 10° 126° (SE) 6,914 13.9 -17.2°
Enters shadow 19:37:43 - 125° (SE) 7,473 14.1 -17.9°
Sets 19:40:03 0° 125° (SE) 7,891 - -18.3°
